sat.trackr.live / text

‹ back to catalog

STARLINK-34379

NORAD 64302 · 2025-123M

PAYLOAD ACTIVE UNKNOWN

§ Identity

Operator
Country
US
Launch date
2025-06-08
Launch site
AFWTR
Launch vehicle
Mass (kg)
RCS (m²)

Purposes: comms

External: N2YO · Heavens-Above · Gunter

§ Orbital elements

Epoch: 2026-05-24T21:40:26.031648Z

Period
93.44 min
Inclination
70.0002°
Eccentricity
0.0003522
Mean motion
15.41039327 rev/d
Perigee alt
440.6 km
Apogee alt
445.4 km
Semi-major
6,821.2 km
B*
6.4588e-4
RAAN
319.4360°
Arg perigee
270.0239°
Mean anomaly
90.0539°
Rev number
5,410

§ Raw data

STARLINK-343791 64302U 25123M   26144.90307907  .00026701  00000+0  64588-3 0  99992 64302  70.0002 319.4360 0003522 270.0239  90.0539 15.41039327 54108

JSON: /api/v1/satellites/64302 · /tle

For live sub-satellite position, see the globe view (requires WebGL).

§ Visibility from observer

Set your observer location to see the next 7 days of passes ≥ 10°. The values pass through the URL so the page stays shareable.

No JS? Fill the form by hand. The geolocation button needs JavaScript.